[[{"header":{"parameterUnit":"m.s-1","parameterCategory":1,"la1":30.2991,"la2":30.254,"lo1":-89.0895,"lo2":-89.0444,"dy":0.0017,"dx":0.0017,"nx":28,"ny":28,"refTime":"2024-06-24T21:00:00:Z","depth":0,"parameterNumber":2,"parameterNumberName":"U-component_of_WINDS"},"data":[0,0,0,0,0,0,0,0,0,0,0,0,0,0,0,0,0,0,0,0,0,0,0,0,0,0,0,0,0,0,0,0,0,0,0,0,0,0,0,0,0,0,0,0,0,0,0,0,0,0,0,0,0,0,0,0,0,0,2.2939,2.2941,0,2.3076,2.3077,2.3079,2.3086,2.3084,2.3083,2.3081,2.3227,2.3233,2.3238,0,0,0,0,0,0,0,0,0,0,0,0,0,2.2692,2.2696,2.2939,2.2941,2.2943,2.3075,2.3077,2.3079,2.3086,2.3084,2.3082,2.308,2.3226,2.3232,2.3238,0,0,0,0,0,0,0,0,0,0,0,0,0,2.2811,2.2698,2.2939,2.2962,2.2965,2.3075,2.3077,2.308,2.3087,2.3084,2.3082,2.3079,2.3223,2.3231,2.3239,2.3337,0,0,2.3264,2.3267,0,0,0,0,0,0,0,0,2.2804,2.282,2.2957,2.2961,2.2965,2.3061,2.3044,2.3166,2.3087,2.3041,2.3081,2.3078,2.3174,2.3186,2.3217,2.3344,2.335,2.3265,2.3269,2.3273,2.3275,0,0,0,0,0,0,0,2.2796,2.2814,2.2993,2.2959,2.2964,2.2968,2.2982,2.3067,2.312,2.3045,2.3045,2.3061,2.3176,2.321,2.3221,2.3352,2.3264,2.3272,2.3277,2.328,2.3568,2.3571,0,0,0,0,0,0,2.2782,2.2807,2.2989,2.2998,2.2877,2.2974,2.299,2.3033,2.3119,2.3129,2.3063,2.3061,2.3197,2.3211,2.3226,2.3347,2.3273,2.328,2.3285,2.3565,2.3569,2.3572,0,0,0,0,0,0,2.2777,2.2798,2.2984,2.2903,2.2927,2.2981,2.3029,2.3037,2.307,2.3132,2.3143,2.3087,2.3196,2.3215,2.3309,2.3352,2.3284,2.3291,2.3562,2.3566,2.357,2.3589,0,0,0,0,0,0,2.277,2.2796,2.2832,2.2903,2.2931,2.3062,2.3031,2.3041,2.3083,2.3082,2.3158,2.3168,2.3195,2.3297,2.3317,2.3362,2.3298,2.3558,2.3564,2.3569,2.3585,2.3593,2.3601,0,0,0,0,0,2.2761,2.2833,2.2834,2.2856,2.2977,2.3065,2.3081,2.3109,2.3087,2.3124,2.3165,2.3166,2.3344,2.3307,2.333,2.3377,2.3556,2.3562,2.3568,2.3581,2.3592,2.3601,0,0,0,0,0,0,2.2768,2.2843,2.2845,2.2942,2.2997,2.3066,2.3114,2.3119,2.3182,2.3179,2.3213,2.323,2.3324,2.336,2.3317,2.3478,2.3448,2.3459,2.345,2.346,2.3468,2.3457,2.3304,0,0,0,0,0,2.278,2.2844,2.2907,2.2987,2.3014,2.3059,2.3099,2.3116,2.3175,2.3198,2.3246,2.3305,2.3374,2.3419,2.3487,2.359,2.3608,2.3635,2.3643,2.3649,2.3658,2.3717,2.373,2.3593,2.3592,2.3592,0,0,2.2808,2.2857,2.2895,2.2989,2.3034,2.3101,2.3079,2.315,2.3201,2.321,2.3302,2.3339,2.3407,2.3507,2.3553,2.354,2.37,2.3657,2.3661,2.3668,2.3725,2.3738,2.3749,2.3597,2.3596,2.3595,0,0,2.2891,2.2934,2.3005,2.305,2.3117,2.3147,2.3164,2.3233,2.3257,2.3349,2.3358,2.342,2.3539,2.3587,2.3627,2.3731,2.3735,2.3752,2.3794,2.385,2.3861,2.3871,2.3908,2.3921,2.3761,2.3761,2.3761,0,2.2917,2.3015,2.3042,2.3113,2.3156,2.3165,2.3239,2.3282,2.3369,2.3399,2.3382,2.3532,2.3579,2.369,2.3715,2.3748,2.377,2.3743,2.3857,2.3867,2.3877,2.3913,2.3927,2.3763,2.3763,2.3763,2.3763,0,2.3044,2.3113,2.3163,2.3244,2.3293,2.3365,2.3405,2.3451,2.3464,2.3496,2.3591,2.3647,2.3727,2.3755,2.3769,2.3869,2.3859,2.3849,2.382,2.3891,2.3926,2.394,2.3765,2.3765,2.3764,2.3764,0,0,2.3135,2.323,2.3248,2.3286,2.3361,2.3416,2.349,2.3565,2.3605,2.3665,2.3729,2.3829,2.3821,2.3867,2.3887,2.3937,2.4016,2.3922,2.3924,2.3938,2.4131,2.4137,2.4153,2.4019,2.4022,2.4024,2.4125,0,2.3227,2.3356,2.3383,2.3495,2.356,2.3571,2.3636,2.369,2.3723,2.3785,2.3822,2.3892,2.3876,2.3904,2.3954,2.3996,2.4055,2.3989,2.4081,2.4083,2.4062,2.4171,2.4178,2.427,2.4139,2.4141,2.4143,0,2.3351,2.3412,2.353,2.3598,2.3626,2.3683,2.3756,2.3814,2.3877,2.3897,2.3949,2.3963,2.4043,2.401,2.4121,2.4075,2.4115,2.4141,2.4146,2.4155,2.4117,2.4184,2.4301,2.4314,2.4165,2.4163,2.4161,0,2.3405,2.3518,2.3603,2.3635,2.3716,2.3756,2.3792,2.3852,2.3897,2.3961,2.399,2.4063,2.4104,2.4161,2.4196,2.4169,2.4305,2.4275,2.4326,2.4325,2.4354,2.4351,2.4479,2.4379,2.4379,2.4379,2.4378,0,2.3505,2.3577,2.3629,2.3681,2.3764,2.3795,2.3876,2.3912,2.3966,2.4028,2.4043,2.4101,2.4143,2.4208,2.4236,2.4325,2.4343,2.4363,2.437,2.4361,2.4359,2.4388,2.4382,2.4382,2.4382,2.4381,2.438,0,2.358,2.3617,2.3711,2.378,2.3799,2.3856,2.3916,2.3969,2.4002,2.408,2.41,2.4153,2.423,2.427,2.4367,2.4386,2.4486,2.4489,2.4463,2.4466,2.4515,2.451,2.4665,2.4687,2.4573,2.4574,2.4575,0,2.364,2.3696,2.3771,2.3812,2.3848,2.3915,2.396,2.3994,2.404,2.4117,2.4161,2.4238,2.4301,2.4424,2.4473,2.4547,2.4552,2.4602,2.4564,2.4554,2.4553,2.4549,2.4555,2.4608,2.4609,2.461,2.4611,0,2.3745,2.3761,2.3823,2.3894,2.3946,2.4004,2.406,2.4094,2.4138,2.419,2.4267,2.4316,2.4415,2.4492,2.457,2.461,2.4618,2.4622,2.4638,2.463,2.4613,2.4623,2.4482,2.4619,2.4618,2.4617,2.4617,2.4617,2.3815,2.3865,2.3925,2.3995,2.4041,2.4094,2.4147,2.4187,2.4251,2.4332,2.435,2.4432,2.4496,2.4601,2.4643,2.471,2.47,2.4722,2.4728,2.4733,2.4735,2.4603,2.4724,2.4724,2.4724,2.4724,2.4724,0,2.392,2.3959,2.4023,2.4101,2.4157,2.4159,2.4222,2.4269,2.4341,2.4399,2.446,2.4551,2.4626,2.468,2.4757,2.48,2.4806,2.4819,2.4816,2.4826,2.474,2.4718,2.4813,2.4813,2.4813,2.4813,2.4813,2.4813,2.3981,2.4066,2.4089,2.4198,2.4238,2.4317,2.4353,2.4403,2.4449,2.4548,2.461,2.4645,2.4702,2.4783,2.4853,2.4867,2.4895,2.4908,2.4923,2.4841,2.4832,2.4822,2.4803,2.4914,2.4914,2.5003,2.5004,2.5004]},{"header":{"parameterUnit":"m.s-1","parameterCategory":1,"la1":30.2991,"la2":30.254,"lo1":-89.0895,"lo2":-89.0444,"dy":0.0017,"dx":0.0017,"nx":28,"ny":28,"refTime":"2024-06-24T21:00:00:Z","depth":0,"parameterNumber":3,"parameterNumberName":"V-component_of_WINDS"},"data":[0,0,0,0,0,0,0,0,0,0,0,0,0,0,0,0,0,0,0,0,0,0,0,0,0,0,0,0,0,0,0,0,0,0,0,0,0,0,0,0,0,0,0,0,0,0,0,0,0,0,0,0,0,0,0,0,0,0,2.4429,2.4429,0,2.4447,2.4448,2.4448,2.4449,2.4449,2.4448,2.4448,2.4465,2.4465,2.4466,0,0,0,0,0,0,0,0,0,0,0,0,0,2.4389,2.439,2.4429,2.4429,2.4429,2.4447,2.4448,2.4448,2.4449,2.4449,2.4448,2.4448,2.4464,2.4465,2.4466,0,0,0,0,0,0,0,0,0,0,0,0,0,2.4407,2.439,2.4429,2.4432,2.4433,2.4447,2.4448,2.4448,2.4449,2.4449,2.4448,2.4448,2.4464,2.4465,2.4466,2.4478,0,0,2.4469,2.4469,0,0,0,0,0,0,0,0,2.4406,2.4408,2.4431,2.4432,2.4432,2.4446,2.444,2.4458,2.4449,2.4443,2.4448,2.4448,2.4458,2.446,2.4464,2.4479,2.448,2.4469,2.447,2.447,2.447,0,0,0,0,0,0,0,2.4405,2.4407,2.4436,2.4432,2.4432,2.4431,2.4433,2.4443,2.4452,2.4443,2.4443,2.4446,2.4459,2.4463,2.4464,2.448,2.4469,2.447,2.447,2.4471,2.4501,2.4502,0,0,0,0,0,0,2.4403,2.4406,2.4436,2.4437,2.4418,2.4432,2.4434,2.4442,2.4452,2.4453,2.4446,2.4446,2.4461,2.4463,2.4465,2.4477,2.447,2.4471,2.4471,2.4501,2.4501,2.4502,0,0,0,0,0,0,2.4402,2.4406,2.4435,2.4422,2.4425,2.4433,2.4441,2.4442,2.4447,2.4454,2.4455,2.4449,2.4461,2.4463,2.4474,2.4478,2.4471,2.4472,2.4501,2.4501,2.4502,2.4504,0,0,0,0,0,0,2.4401,2.4406,2.4412,2.4422,2.4426,2.4446,2.4441,2.4443,2.4449,2.4448,2.4457,2.4458,2.4461,2.4473,2.4475,2.4479,2.4473,2.4501,2.4501,2.4501,2.4504,2.4505,2.4505,0,0,0,0,0,2.44,2.4412,2.4412,2.4416,2.4434,2.4446,2.4448,2.4452,2.4449,2.4454,2.4458,2.4458,2.4477,2.4474,2.4476,2.4481,2.45,2.4501,2.4501,2.4503,2.4504,2.4505,0,0,0,0,0,0,2.4403,2.4414,2.4414,2.443,2.4437,2.4446,2.4453,2.4453,2.4461,2.446,2.4464,2.4465,2.4475,2.4479,2.4475,2.4491,2.4488,2.4489,2.4489,2.449,2.449,2.4489,2.4474,0,0,0,0,0,2.4405,2.4415,2.4423,2.4437,2.444,2.4446,2.4451,2.4453,2.446,2.4463,2.4468,2.4474,2.448,2.4485,2.4492,2.4504,2.4504,2.4508,2.4509,2.4509,2.451,2.4513,2.4514,2.4504,2.4504,2.4504,0,0,2.441,2.4417,2.4424,2.4437,2.4443,2.4451,2.4448,2.4458,2.4464,2.4464,2.4474,2.4478,2.4484,2.4494,2.4499,2.4498,2.4513,2.451,2.451,2.4511,2.4514,2.4515,2.4516,2.4504,2.4504,2.4504,0,0,2.4424,2.4431,2.4442,2.4447,2.4455,2.4458,2.446,2.4469,2.4471,2.4481,2.4481,2.4486,2.4499,2.4503,2.4506,2.4517,2.4516,2.4519,2.4523,2.4526,2.4527,2.4527,2.4529,2.453,2.452,2.452,2.452,0,2.4429,2.4443,2.4447,2.4456,2.446,2.4461,2.447,2.4474,2.4484,2.4486,2.4485,2.4498,2.4503,2.4513,2.4515,2.4518,2.4519,2.4518,2.4527,2.4527,2.4528,2.453,2.4531,2.452,2.452,2.452,2.452,0,2.4448,2.4457,2.4464,2.4473,2.4479,2.4488,2.4491,2.4495,2.4496,2.4498,2.4506,2.4511,2.4518,2.452,2.4521,2.4529,2.4527,2.4526,2.4523,2.4529,2.4531,2.4532,2.452,2.452,2.452,2.452,0,0,2.4466,2.4475,2.4477,2.448,2.4487,2.4494,2.4501,2.4508,2.451,2.4516,2.4521,2.453,2.4527,2.4531,2.4532,2.4535,2.454,2.4533,2.4533,2.4533,2.4546,2.4547,2.4548,2.4539,2.4539,2.4539,2.4545,0,2.448,2.4494,2.4496,2.4508,2.4514,2.4513,2.4519,2.4523,2.4524,2.4529,2.453,2.4535,2.4533,2.4535,2.4538,2.4539,2.4542,2.4538,2.4542,2.4542,2.454,2.4549,2.455,2.4555,2.4546,2.4546,2.4546,0,2.4498,2.4504,2.4516,2.4519,2.4522,2.4528,2.4532,2.4537,2.454,2.4541,2.4543,2.4543,2.4548,2.4544,2.4549,2.4546,2.4547,2.4548,2.4548,2.4548,2.4544,2.4548,2.4557,2.4558,2.4547,2.4547,2.4547,0,2.4508,2.4518,2.4526,2.4529,2.4534,2.4537,2.4539,2.4541,2.4544,2.4547,2.4548,2.4552,2.4554,2.4555,2.4555,2.4552,2.4559,2.4556,2.4558,2.4558,2.456,2.456,2.4569,2.4562,2.4562,2.4562,2.4562,0,2.4522,2.453,2.453,2.4535,2.4542,2.4543,2.4549,2.455,2.4552,2.4556,2.4554,2.4557,2.4557,2.4559,2.4558,2.4561,2.4562,2.4561,2.4561,2.4561,2.4561,2.4562,2.4562,2.4562,2.4562,2.4562,2.4562,0,2.4535,2.4536,2.4544,2.4547,2.4548,2.4552,2.4554,2.4557,2.4558,2.4562,2.4563,2.4563,2.4565,2.4564,2.4567,2.4566,2.457,2.4569,2.4569,2.4569,2.457,2.457,2.458,2.458,2.4574,2.4574,2.4574,0,2.4544,2.4549,2.4552,2.4554,2.4556,2.456,2.4562,2.4562,2.4564,2.4565,2.4568,2.457,2.4572,2.4575,2.4574,2.4575,2.4574,2.4577,2.4575,2.4574,2.4573,2.4572,2.4572,2.4578,2.4578,2.4578,2.4578,0,2.4559,2.4558,2.4562,2.4565,2.4568,2.457,2.4572,2.4574,2.4573,2.4575,2.4577,2.4578,2.458,2.4581,2.4581,2.4581,2.4579,2.4579,2.4579,2.458,2.4579,2.4578,2.457,2.4579,2.4579,2.4579,2.4579,2.4579,2.4569,2.4573,2.4574,2.4577,2.4578,2.458,2.4582,2.4582,2.4584,2.4586,2.4585,2.4587,2.4586,2.4586,2.4586,2.4586,2.4585,2.4586,2.4586,2.4586,2.4585,2.4579,2.4586,2.4586,2.4586,2.4586,2.4586,0,2.4583,2.4583,2.4586,2.4588,2.459,2.4587,2.4589,2.459,2.4592,2.4592,2.4593,2.4594,2.4594,2.4593,2.4592,2.4592,2.4591,2.4592,2.4592,2.4592,2.4587,2.4587,2.4593,2.4593,2.4593,2.4593,2.4593,2.4593,2.459,2.4595,2.4594,2.4598,2.4598,2.46,2.4601,2.4601,2.4601,2.4602,2.4602,2.4601,2.46,2.4599,2.4598,2.4597,2.4597,2.4598,2.4597,2.4593,2.4592,2.4592,2.4591,2.4598,2.4598,2.4601,2.4601,2.4601]}]]